Weather WX

World > North America > United States > Mississippi

Ethel, Mississippi Regional Weather

Lat: 33.12N, Lon: 89.46W
Wx Zone: MSZ037
Feedback

Ethel, MS Regional Weather

Expires:201906201800;;794371
ASUS44 KJAN 201710
RWRMS 

MISSISSIPPI HOURLY WEATHER ROUNDUP
NATIONAL WEATHER SERVICE JACKSON MS
1200 PM CDT THU JUN 20 2019

NOTE: "FAIR: INDICATES FEW OR NO CLOUDS BELOW 12,000 FEET WITH NO
SIGNIFICANT WEATHER AND/OR OBSTRUCTIONS TO VISIBILITY.


MSZ003>006-009-014>017-022>024-029>033-037>039-201800-
NORTHEAST MISSISSIPPI
  
CITY           SKY/WX    TMP DP  RH WIND       PRES   REMARKS
ABERDEEN       FAIR      82  77  83 W9G17     29.89R HX  91           
COLUMBUS AFB   FAIR      84  69  59 SW5       29.87S                  
CORINTH        PTSUNNY   82  66  57 W13G24    29.84S                  
GOLDN TRIANGLE PTSUNNY   83  71  67 W8        29.89S                  
STARKVILLE     CLOUDY    81  66  61 W6        29.90R                  
TUPELO         FAIR      84  66  54 W9G17     29.86R                  
$$


SKY/WX - Weather  TMP - Temperature  DP - Dew Point  RH - Relative Humidity
WIND - Wind Direction/Speed PRES - Barometric Pressure VSB - Visibility
WCI - Wind Chill Index E13G22 Wind - East Wind 13 mph/Gusts of 22 mph